Location: Pasarilla del Rebollar
(40.6790°N, 5.0062°W)
Time: 12:06:36
(UTC+00:00)

H-2A R/B - Pass Details

Date: 22 April 2026
Orbit: 549 x 612 km, 98.5° (Epoch: 16 May)

Event Time Altitude Azimuth Distance (km) Brightness Sun altitude
Rises 04:17:48 0° 12° (NNE) 2,763 6.0 -13.6°
Reaches altitude 10° 04:19:57 10° 11° (N) 1,854 5.1 -13.3°
Maximum altitude 04:23:57 79° 286° (WNW) 569 1.8 -12.6°
Drops below altitude 10° 04:27:52 10° 199° (SSW) 1,820 4.0 -11.9°
Enters shadow 04:28:03 - 198° (SSW) 1,893 4.1 -11.9°
